Weather History for Drummond Island, MI

Change the Weather History Date:

Thursday, August 29, 2013

  Actual Average (KCIU) Record (KCIU)
Temperature  
Mean Temperature 72 °F -  
Max Temperature 84 °F 73 °F 89 °F (1991)
Min Temperature 61 °F 51 °F 28 °F (1982)
Cooling Degree Days 8    
Growing Degree Days 22 (Base 50)    
Moisture  
Dew Point 65 °F    
Average Humidity 80    
Maximum Humidity 100    
Minimum Humidity 48    
Precipitation  
Precipitation 0.00 in - - ()
Sea Level Pressure  
Sea Level Pressure 30.03 in    
Wind  
Wind Speed 1 mph (SW)    
Max Wind Speed 6 mph    
Max Gust Speed -    
Visibility 8 miles    
Events Fog    
Averages and records for this station are not official NWS values.
T = Trace of Precipitation, MM = Missing Value Source: NWS Daily Summary

Daily Weather History Graph

Daily Weather History Graph

Search for Another Location

Airport:

Trip Planner

Search our weather history database for the weather conditions in past years. The results will help you decide how hot, cold, wet, or windy it might be!

Date:

Astronomy

Aug. 29, 2013 Rise Set
Actual Time 6:52 AM EDT 8:18 PM EDT
Civil Twilight 6:21 AM EDT 8:49 PM EDT
Nautical Twilight 5:43 AM EDT 9:27 PM EDT
Astronomical Twilight 5:02 AM EDT 10:07 PM EDT
Moon 12:33 AM EDT (8/29) 3:56 PM EDT (8/29)
Length of Visible Light 14h 28m
Length of Day
13h 26m
Last Quarter, 38% of the Moon is Illuminated
Aug 29
Last Quarter
Sep 5
New
Sep 12
First Quarter
Sep 19
Full
Sep 26
Last Quarter

Hourly Weather History & Observations

Time (EDT) Temp. Heat Index Dew Point Humidity Pressure Visibility Wind Dir Wind Speed Gust Speed Precip Events Conditions
12:15 AM 69.3 °F - 66.6 °F 91% 30.03 in 10.0 mi Calm Calm - N/A   Clear
12:35 AM 69.4 °F - 66.4 °F 90% 30.03 in 10.0 mi WNW 4.6 mph - N/A   Clear
12:55 AM 68.9 °F - 66.2 °F 91% 30.03 in 10.0 mi Calm Calm - N/A   Clear
1:15 AM 68.4 °F - 66.2 °F 93% 30.03 in 10.0 mi Calm Calm - N/A   Clear
1:34 AM 67.5 °F - 65.8 °F 95% 30.03 in 10.0 mi Calm Calm - N/A   Clear
1:55 AM 66.9 °F - 65.8 °F 96% 30.03 in 7.0 mi Calm Calm - N/A   Clear
2:15 AM 66.4 °F - 65.5 °F 97% 30.03 in 5.0 mi Calm Calm - N/A   Clear
2:34 AM 65.3 °F - 64.4 °F 97% 30.03 in 5.0 mi Calm Calm - N/A   Clear
2:55 AM 65.5 °F - 64.6 °F 97% 30.03 in 2.5 mi Calm Calm - N/A   Clear
3:15 AM 64.4 °F - 63.9 °F 98% 30.03 in 1.8 mi Calm Calm - N/A   Mist
3:35 AM 64.4 °F - 64.0 °F 99% 30.03 in 4.0 mi Calm Calm - N/A   Clear
3:55 AM 63.3 °F - 63.1 °F 99% 30.03 in 1.0 mi Calm Calm - N/A   Mist
4:15 AM 64.8 °F - 64.8 °F 100% 30.03 in 2.5 mi Calm Calm - N/A   Clear
4:35 AM 63.3 °F - 63.3 °F 100% 30.03 in 0.5 mi Calm Calm - N/A Fog Fog
4:55 AM 63.3 °F - 63.3 °F 100% 30.03 in 0.5 mi Calm Calm - N/A Fog Fog
5:15 AM 63.3 °F - 63.3 °F 100% 30.03 in 1.5 mi Calm Calm - N/A   Mist
5:35 AM 63.5 °F - 63.5 °F 100% 30.04 in 0.2 mi Calm Calm - N/A Fog Fog
5:55 AM 62.8 °F - 62.8 °F 100% 30.05 in 0.8 mi Calm Calm - N/A   Mostly Cloudy
6:15 AM 61.9 °F - 61.9 °F 100% 30.05 in 0.5 mi Calm Calm - N/A Fog Fog
6:35 AM 63.5 °F - 63.5 °F 100% 30.06 in 0.8 mi Calm Calm - N/A   Overcast
6:55 AM 64.8 °F - 64.8 °F 100% 30.06 in 2.5 mi Calm Calm - N/A   Mostly Cloudy
7:15 AM 64.4 °F - 64.4 °F 100% 30.06 in 0.2 mi Calm Calm - N/A Fog Fog
7:35 AM 63.3 °F - 63.3 °F 100% 30.06 in 0.2 mi Calm Calm - N/A Fog Fog
7:54 AM 64.4 °F - 64.4 °F 100% 30.06 in 4.0 mi Calm Calm - N/A   Clear
8:15 AM 66.2 °F - 66.2 °F 100% 30.06 in 3.0 mi Calm Calm - N/A   Clear
8:34 AM 68.9 °F - 68.9 °F 100% 30.06 in 7.0 mi Calm Calm - N/A   Clear
8:55 AM 69.8 °F - 67.5 °F 92% 30.06 in 10.0 mi Calm Calm - N/A   Clear
9:15 AM 72.0 °F - 67.3 °F 85% 30.06 in 10.0 mi Calm Calm - N/A   Clear
9:35 AM 72.7 °F - 67.1 °F 83% 30.07 in 10.0 mi West 3.5 mph - N/A   Clear
9:55 AM 72.3 °F - 67.1 °F 84% 30.07 in 10.0 mi WSW 3.5 mph - N/A   Clear
10:15 AM 74.1 °F - 66.9 °F 78% 30.07 in 10.0 mi Calm Calm - N/A   Clear
10:35 AM 75.0 °F - 66.9 °F 76% 30.08 in 10.0 mi NNW 3.5 mph - N/A   Clear
10:55 AM 74.3 °F - 66.0 °F 75% 30.08 in 10.0 mi NW 3.5 mph - N/A   Clear
11:15 AM 76.1 °F - 66.2 °F 71% 30.07 in 10.0 mi West 3.5 mph - N/A   Clear
11:35 AM 77.2 °F - 66.4 °F 69% 30.08 in 10.0 mi WNW 4.6 mph - N/A   Clear
11:55 AM 78.1 °F - 66.4 °F 67% 30.07 in 10.0 mi WNW 4.6 mph - N/A   Clear
12:15 PM 79.2 °F - 66.2 °F 64% 30.07 in 10.0 mi West 3.5 mph - N/A   Clear
12:34 PM 79.5 °F - 65.8 °F 63% 30.07 in 10.0 mi Calm Calm - N/A   Clear
12:55 PM 80.6 °F 82.4 °F 64.9 °F 59% 30.06 in 10.0 mi Calm Calm - N/A   Clear
1:15 PM 81.9 °F 83.5 °F 64.9 °F 56% 30.06 in 10.0 mi WSW 3.5 mph - N/A   Clear
1:35 PM 82.0 °F 83.3 °F 63.3 °F 53% 30.06 in 10.0 mi WNW 3.5 mph - N/A   Clear
1:55 PM 82.8 °F 84.0 °F 63.5 °F 52% 30.06 in 10.0 mi Calm Calm - N/A   Clear
2:15 PM 83.7 °F 84.9 °F 63.7 °F 51% 30.06 in 10.0 mi Calm Calm - N/A   Clear
2:35 PM 84.0 °F 84.7 °F 62.6 °F 48% 30.05 in 10.0 mi Calm Calm - N/A   Clear
2:55 PM 84.2 °F 85.2 °F 63.0 °F 49% 30.04 in 10.0 mi Calm Calm - N/A   Clear
3:15 PM 84.4 °F 85.9 °F 64.4 °F 51% 30.04 in 10.0 mi WNW 3.5 mph - N/A   Clear
3:35 PM 84.4 °F 85.6 °F 64.0 °F 50% 30.03 in 10.0 mi Calm Calm - N/A   Clear
3:55 PM 84.2 °F 87.1 °F 67.3 °F 57% 30.02 in 10.0 mi South 5.8 mph - N/A   Clear
4:14 PM 82.6 °F 85.1 °F 66.7 °F 59% 30.02 in 10.0 mi SSW 5.8 mph - N/A   Clear
4:35 PM 82.2 °F 84.4 °F 66.0 °F 58% 30.02 in 10.0 mi SSW 5.8 mph - N/A   Clear
4:54 PM 82.0 °F 84.3 °F 66.2 °F 59% 30.02 in 10.0 mi SW 5.8 mph - N/A   Clear
5:15 PM 82.4 °F 84.4 °F 66.0 °F 57% 30.01 in 10.0 mi SW 5.8 mph - N/A   Clear
5:35 PM 81.7 °F 83.6 °F 65.7 °F 58% 30.01 in 10.0 mi SSW 5.8 mph - N/A   Clear
5:55 PM 81.0 °F 82.7 °F 64.9 °F 58% 30.01 in 10.0 mi SSW 4.6 mph - N/A   Clear
6:14 PM 81.5 °F 83.1 °F 64.6 °F 56% 30.01 in 10.0 mi Calm Calm - N/A   Clear
6:35 PM 81.0 °F 82.7 °F 64.9 °F 58% 30.00 in 10.0 mi Calm Calm - N/A   Clear
6:55 PM 77.9 °F - 66.4 °F 68% 30.00 in 10.0 mi Calm Calm - N/A   Clear
7:15 PM 77.0 °F - 67.8 °F 73% 30.00 in 10.0 mi Calm Calm - N/A   Clear
7:35 PM 75.2 °F - 67.5 °F 77% 30.00 in 10.0 mi Calm Calm - N/A   Clear
7:55 PM 73.9 °F - 66.7 °F 78% 30.00 in 10.0 mi Calm Calm - N/A   Clear
8:15 PM 74.3 °F - 65.5 °F 74% 30.00 in 10.0 mi South 3.5 mph - N/A   Clear
8:35 PM 73.4 °F - 65.8 °F 77% 30.00 in 10.0 mi South 4.6 mph - N/A   Clear
8:55 PM 72.3 °F - 67.3 °F 84% 30.01 in 10.0 mi South 4.6 mph - N/A   Clear
9:15 PM 71.1 °F - 67.6 °F 89% 30.01 in 10.0 mi South 3.5 mph - N/A   Clear
9:35 PM 70.7 °F - 68.0 °F 91% 30.01 in 10.0 mi Calm Calm - N/A   Clear
9:54 PM 70.2 °F - 67.5 °F 91% 30.00 in 10.0 mi Calm Calm - N/A   Clear
10:15 PM 68.9 °F - 66.9 °F 93% 29.98 in 10.0 mi SSE 3.5 mph - N/A   Clear
10:35 PM 69.3 °F - 66.6 °F 91% 29.98 in 10.0 mi SSE 3.5 mph - N/A   Clear
10:55 PM 69.3 °F - 66.6 °F 91% 29.97 in 10.0 mi Calm Calm - N/A   Clear
11:15 PM 69.8 °F - 66.2 °F 88% 29.95 in 10.0 mi Calm Calm - N/A   Clear
11:35 PM 70.3 °F - 66.0 °F 86% 29.95 in 10.0 mi SSE 3.5 mph - N/A   Clear
11:55 PM 70.5 °F - 65.8 °F 85% 29.94 in 10.0 mi Calm Calm - N/A   Clear